Location: Kellogg
(38.0159°N, 90.0546°W)
Time: 01:52:05
(UTC+00:00)

Vanguard 2 - Pass Details

Date: 25 September 2024
Orbit: 552 x 2910 km, 32.9° (Epoch: 15 October)

Event Time Altitude Azimuth Distance (km) Brightness Sun altitude
Rises 08:52:13 0° 263° (W) 2,711 - -34.6°
Reaches altitude 10° 08:54:23 10° 256° (WSW) 1,842 - -34.2°
Maximum altitude 08:58:11 41° 185° (S) 908 - -33.6°
Exits shadow 09:01:21 18° 123° (ESE) 1,714 9.5 -33.0°
Drops below altitude 10° 09:03:00 10° 115° (ESE) 2,343 10.4 -32.8°
Sets 09:06:05 0° 109° (ESE) 3,572 11.5 -32.2°
